Weather History for Farmington, MO

Change the Weather History Date:

Sunday, April 21, 2013

  Actual Average Record
Temperature  
Mean Temperature 52 °F -  
Max Temperature 64 °F 65 °F 82 °F (2002)
Min Temperature 39 °F 45 °F 39 °F (2009)
Degree Days  
Heating Degree Days 14    
Growing Degree Days 2 (Base 50)    
Moisture  
Dew Point 34 °F    
Average Humidity 53    
Maximum Humidity 75    
Minimum Humidity 34    
Precipitation  
Precipitation 0.00 in - - ()
Sea Level Pressure  
Sea Level Pressure 30.34 in    
Wind  
Wind Speed 6 mph (ESE)    
Max Wind Speed 13 mph    
Max Gust Speed -    
Visibility 10 miles    
Events      
Averages and records for this station are not official NWS values.
T = Trace of Precipitation, MM = Missing Value Source: NWS Daily Summary

Daily Weather History Graph

Daily Weather History Graph

Search for Another Location

Airport:

Trip Planner

Search our weather history database for the weather conditions in past years. The results will help you decide how hot, cold, wet, or windy it might be!

Date:

Astronomy

Apr. 21, 2013 Rise Set
Actual Time 6:18 AM CDT 7:43 PM CDT
Civil Twilight 5:50 AM CDT 8:10 PM CDT
Nautical Twilight 5:17 AM CDT 8:43 PM CDT
Astronomical Twilight 4:43 AM CDT 9:18 PM CDT
Moon 3:32 PM CDT (4/21) 3:35 AM CDT (4/21)
Length of Visible Light 14h 20m
Length of Day
13h 25m
Waxing Gibbous, 80% of the Moon is Illuminated
Apr 21
Waxing Gibbous
Apr 25
Full
May 2
Last Quarter
May 9
New
May 17
First Quarter

Hourly Weather History & Observations

Time (CDT) Temp. Windchill Dew Point Humidity Pressure Visibility Wind Dir Wind Speed Gust Speed Precip Events Conditions
12:15 AM 42.8 °F 39.3 °F 32.0 °F 66% 30.34 in 10.0 mi East 5.8 mph - N/A   Clear
12:35 AM 42.8 °F 41.1 °F 30.2 °F 61% 30.34 in 10.0 mi East 3.5 mph - N/A   Clear
12:55 AM 42.8 °F 39.3 °F 30.2 °F 61% 30.34 in 10.0 mi East 5.8 mph - N/A   Clear
1:15 AM 41.0 °F 37.1 °F 30.2 °F 65% 30.34 in 10.0 mi East 5.8 mph - N/A   Clear
1:35 AM 41.0 °F 37.1 °F 30.2 °F 65% 30.34 in 10.0 mi East 5.8 mph - N/A   Clear
1:55 AM 42.8 °F 40.1 °F 30.2 °F 61% 30.34 in 10.0 mi East 4.6 mph - N/A   Clear
2:15 AM 39.2 °F 35.0 °F 30.2 °F 70% 30.34 in 10.0 mi ESE 5.8 mph - N/A   Clear
2:35 AM 39.2 °F 35.0 °F 30.2 °F 70% 30.34 in 10.0 mi East 5.8 mph - N/A   Clear
2:55 AM 41.0 °F 38.0 °F 30.2 °F 65% 30.34 in 10.0 mi ESE 4.6 mph - N/A   Clear
3:15 AM 39.2 °F 35.9 °F 30.2 °F 70% 30.34 in 10.0 mi ESE 4.6 mph - N/A   Clear
3:35 AM 39.2 °F 37.0 °F 30.2 °F 70% 30.34 in 10.0 mi ESE 3.5 mph - N/A   Clear
3:55 AM 41.0 °F 38.0 °F 30.2 °F 65% 30.34 in 10.0 mi East 4.6 mph - N/A   Partly Cloudy
4:15 AM 41.0 °F 39.0 °F 30.2 °F 65% 30.35 in 10.0 mi East 3.5 mph - N/A   Mostly Cloudy
4:35 AM 41.0 °F 38.0 °F 32.0 °F 70% 30.35 in 10.0 mi East 4.6 mph - N/A   Overcast
4:55 AM 41.0 °F 39.0 °F 30.2 °F 65% 30.36 in 10.0 mi ESE 3.5 mph - N/A   Mostly Cloudy
5:15 AM 41.0 °F 39.0 °F 30.2 °F 65% 30.36 in 10.0 mi ESE 3.5 mph - N/A   Mostly Cloudy
5:35 AM 41.0 °F 38.0 °F 30.2 °F 65% 30.36 in 10.0 mi East 4.6 mph - N/A   Scattered Clouds
5:55 AM 39.2 °F - 30.2 °F 70% 30.37 in 10.0 mi Calm Calm - N/A   Clear
6:15 AM 39.2 °F 37.0 °F 28.4 °F 65% 30.38 in 10.0 mi East 3.5 mph - N/A   Clear
6:35 AM 39.2 °F 37.0 °F 30.2 °F 70% 30.38 in 10.0 mi East 3.5 mph - N/A   Clear
6:55 AM 39.2 °F - 30.2 °F 70% 30.39 in 10.0 mi Calm Calm - N/A   Clear
7:15 AM 39.2 °F - 32.0 °F 75% 30.40 in 10.0 mi Calm Calm - N/A   Clear
7:35 AM 41.0 °F 38.0 °F 32.0 °F 70% 30.40 in 10.0 mi East 4.6 mph - N/A   Clear
7:55 AM 42.8 °F 40.1 °F 32.0 °F 66% 30.41 in 10.0 mi ESE 4.6 mph - N/A   Clear
8:15 AM 44.6 °F 40.7 °F 30.2 °F 57% 30.41 in 10.0 mi ESE 6.9 mph - N/A   Clear
8:35 AM 44.6 °F 40.2 °F 30.2 °F 57% 30.41 in 10.0 mi ESE 8.1 mph - N/A   Clear
8:55 AM 46.4 °F 42.4 °F 32.0 °F 57% 30.42 in 10.0 mi ESE 8.1 mph - N/A   Clear
9:15 AM 48.2 °F - 30.2 °F 50% 30.42 in 10.0 mi ESE 10.4 mph - N/A   Clear
9:35 AM 50.0 °F - 30.2 °F 47% 30.41 in 10.0 mi ESE 9.2 mph - N/A   Clear
9:55 AM 51.8 °F - 30.2 °F 44% 30.41 in 10.0 mi ESE 8.1 mph - N/A   Clear
10:15 AM 51.8 °F - 33.8 °F 50% 30.41 in 10.0 mi SE 6.9 mph - N/A   Clear
10:35 AM 53.6 °F - 32.0 °F 44% 30.41 in 10.0 mi SSE 11.5 mph - N/A   Clear
10:55 AM 53.6 °F - 32.0 °F 44% 30.41 in 10.0 mi SSE 10.4 mph - N/A   Clear
11:15 AM 55.4 °F - 33.8 °F 44% 30.41 in 10.0 mi South 10.4 mph - N/A   Clear
11:35 AM 55.4 °F - 33.8 °F 44% 30.40 in 10.0 mi South 9.2 mph - N/A   Clear
11:55 AM 57.2 °F - 33.8 °F 41% 30.39 in 10.0 mi SE 6.9 mph - N/A   Clear
12:15 PM 57.2 °F - 35.6 °F 44% 30.38 in 10.0 mi South 4.6 mph - N/A   Clear
12:35 PM 59.0 °F - 35.6 °F 42% 30.37 in 10.0 mi East 8.1 mph - N/A   Clear
12:55 PM 60.8 °F - 37.4 °F 42% 30.36 in 10.0 mi East 6.9 mph - N/A   Clear
1:15 PM 60.8 °F - 37.4 °F 42% 30.35 in 10.0 mi East 9.2 mph - N/A   Clear
1:35 PM 60.8 °F - 35.6 °F 39% 30.34 in 10.0 mi ESE 8.1 mph - N/A   Clear
1:55 PM 62.6 °F - 35.6 °F 37% 30.34 in 10.0 mi ESE 8.1 mph - N/A   Clear
2:15 PM 62.6 °F - 35.6 °F 37% 30.33 in 10.0 mi East 10.4 mph - N/A   Clear
2:35 PM 62.6 °F - 37.4 °F 39% 30.32 in 10.0 mi East 8.1 mph - N/A   Clear
2:55 PM 64.4 °F - 37.4 °F 37% 30.31 in 10.0 mi East 9.2 mph - N/A   Clear
3:15 PM 64.4 °F - 35.6 °F 34% 30.30 in 10.0 mi ESE 12.7 mph - N/A   Clear
3:35 PM 64.4 °F - 35.6 °F 34% 30.29 in 10.0 mi East 10.4 mph - N/A   Clear
3:55 PM 64.4 °F - 37.4 °F 37% 30.28 in 10.0 mi ESE 9.2 mph - N/A   Clear
4:15 PM 64.4 °F - 37.4 °F 37% 30.27 in 10.0 mi ESE 8.1 mph - N/A   Clear
4:35 PM 64.4 °F - 37.4 °F 37% 30.27 in 10.0 mi East 6.9 mph - N/A   Clear
4:55 PM 64.4 °F - 37.4 °F 37% 30.27 in 10.0 mi ESE 9.2 mph - N/A   Clear
5:15 PM 64.4 °F - 35.6 °F 34% 30.26 in 10.0 mi SE 9.2 mph - N/A   Clear
5:35 PM 62.6 °F - 37.4 °F 39% 30.26 in 10.0 mi ESE 10.4 mph - N/A   Clear
5:55 PM 62.6 °F - 35.6 °F 37% 30.26 in 10.0 mi ESE 9.2 mph - N/A   Clear
6:15 PM 62.6 °F - 37.4 °F 39% 30.25 in 10.0 mi ESE 11.5 mph - N/A   Clear
6:35 PM 60.8 °F - 37.4 °F 42% 30.25 in 10.0 mi ESE 10.4 mph - N/A   Clear
6:55 PM 60.8 °F - 37.4 °F 42% 30.26 in 10.0 mi SE 5.8 mph - N/A   Clear
7:15 PM 59.0 °F - 37.4 °F 45% 30.26 in 10.0 mi ESE 5.8 mph - N/A   Clear
7:35 PM 57.2 °F - 37.4 °F 48% 30.26 in 10.0 mi East 8.1 mph - N/A   Clear
7:55 PM 55.4 °F - 37.4 °F 51% 30.27 in 10.0 mi East 6.9 mph - N/A   Clear
8:15 PM 55.4 °F - 37.4 °F 51% 30.27 in 10.0 mi East 8.1 mph - N/A   Clear
8:35 PM 53.6 °F - 37.4 °F 54% 30.28 in 10.0 mi East 6.9 mph - N/A   Clear
8:55 PM 53.6 °F - 37.4 °F 54% 30.29 in 10.0 mi East 6.9 mph - N/A   Clear
9:15 PM 51.8 °F - 37.4 °F 58% 30.29 in 10.0 mi East 6.9 mph - N/A   Clear
9:35 PM 51.8 °F - 37.4 °F 58% 30.30 in 10.0 mi ESE 3.5 mph - N/A   Clear
9:55 PM 51.8 °F - 35.6 °F 54% 30.31 in 10.0 mi Calm Calm - N/A   Clear
10:15 PM 51.8 °F - 35.6 °F 54% 30.31 in 10.0 mi ESE 3.5 mph - N/A   Clear
10:35 PM 50.0 °F - 35.6 °F 58% 30.31 in 10.0 mi ESE 4.6 mph - N/A   Clear
10:55 PM 48.2 °F - 35.6 °F 62% 30.30 in 10.0 mi ESE 3.5 mph - N/A   Clear
11:15 PM 50.0 °F - 35.6 °F 58% 30.30 in 10.0 mi ESE 3.5 mph - N/A   Clear
11:35 PM 48.2 °F - 35.6 °F 62% 30.29 in 10.0 mi ESE 3.5 mph - N/A   Clear
11:55 PM 48.2 °F - 35.6 °F 62% 30.29 in 10.0 mi ESE 3.5 mph - N/A   Clear